Precipitable_Water
0.19 0.19 0.19 0.19 0.19 0.19 0.19 0.19 0.18 0.17 0.17 0.17 0.16 0.16 0.16 0.16 0.17 0.16 0.16 0.16 0.16 0.15 0.15 0.15 0.15 0.15 0.15 0.15 0.15 0.15 0.14 0.14 0.14 0.14 0.13 0.13 0.13 0.13 0.13 0.13 0.13 0.14
0.19 0.19 0.20 0.20 0.20 0.20 0.20 0.20 0.18 0.17 0.17 0.17 0.17 0.17 0.17 0.17 0.17 0.17 0.16 0.16 0.16 0.16 0.16 0.16 0.16 0.15 0.15 0.15 0.15 0.15 0.15 0.14 0.14 0.15 0.13 0.13 0.13 0.13 0.12 0.12 0.13 0.13
0.19 0.19 0.19 0.19 0.19 0.19 0.20 0.20 0.18 0.17 0.17 0.17 0.18 0.18 0.17 0.18 0.17 0.17 0.17 0.17 0.17 0.17 0.17 0.16 0.16 0.16 0.16 0.16 0.16 0.15 0.15 0.15 0.14 0.15 0.14 0.14 0.14 0.13 0.13 0.12 0.12 0.12
0.19 0.19 0.19 0.19 0.20 0.20 0.20 0.20 0.18 0.18 0.18 0.18 0.18 0.18 0.18 0.18 0.18 0.18 0.18 0.18 0.17 0.17 0.17 0.17 0.17 0.17 0.17 0.16 0.16 0.16 0.15 0.15 0.15 0.15 0.14 0.14 0.14 0.13 0.13 0.13 0.12 0.12
0.18 0.19 0.19 0.20 0.20 0.21 0.21 0.20 0.18 0.18 0.18 0.18 0.18 0.18 0.18 0.18 0.18 0.18 0.18 0.18 0.18 0.18 0.18 0.18 0.18 0.17 0.17 0.17 0.17 0.16 0.16 0.15 0.15 0.15 0.14 0.14 0.14 0.13 0.13 0.13 0.12 0.12
0.19 0.20 0.20 0.20 0.20 0.21 0.21 0.20 0.19 0.18 0.19 0.19 0.19 0.19 0.19 0.19 0.19 0.19 0.19 0.19 0.19 0.19 0.18 0.18 0.18 0.18 0.18 0.17 0.17 0.16 0.16 0.15 0.15 0.15 0.14 0.14 0.14 0.14 0.13 0.12 0.12 0.11
0.20 0.20 0.20 0.20 0.21 0.21 0.21 0.20 0.19 0.19 0.19 0.20 0.20 0.19 0.20 0.19 0.19 0.19 0.19 0.19 0.19 0.19 0.19 0.19 0.19 0.18 0.18 0.18 0.17 0.17 0.16 0.16 0.15 0.15 0.14 0.14 0.14 0.13 0.13 0.12 0.12 0.12
0.20 0.21 0.21 0.21 0.21 0.21 0.21 0.20 0.19 0.19 0.20 0.20 0.20 0.20 0.20 0.20 0.20 0.20 0.20 0.20 0.20 0.20 0.20 0.19 0.19 0.19 0.19 0.18 0.17 0.17 0.16 0.16 0.16 0.15 0.15 0.14 0.14 0.13 0.13 0.13 0.12 0.12
0.21 0.21 0.22 0.22 0.22 0.22 0.21 0.21 0.20 0.20 0.20 0.20 0.20 0.21 0.21 0.21 0.21 0.20 0.20 0.20 0.20 0.20 0.20 0.20 0.20 0.19 0.19 0.18 0.18 0.17 0.16 0.16 0.16 0.15 0.15 0.14 0.14 0.13 0.13 0.12 0.12 0.11
0.21 0.22 0.22 0.22 0.22 0.23 0.22 0.21 0.21 0.21 0.21 0.21 0.21 0.21 0.21 0.21 0.21 0.21 0.21 0.20 0.20 0.20 0.20 0.20 0.20 0.19 0.19 0.19 0.18 0.17 0.17 0.16 0.16 0.15 0.15 0.14 0.14 0.13 0.13 0.12 0.12 0.11
0.22 0.22 0.22 0.22 0.22 0.23 0.23 0.22 0.22 0.22 0.22 0.22 0.22 0.22 0.22 0.22 0.22 0.21 0.21 0.21 0.20 0.20 0.20 0.20 0.20 0.20 0.19 0.19 0.18 0.18 0.17 0.16 0.16 0.15 0.15 0.14 0.14 0.13 0.13 0.12 0.11 0.11
0.22 0.23 0.22 0.22 0.22 0.23 0.23 0.22 0.22 0.22 0.22 0.23 0.23 0.22 0.22 0.22 0.22 0.22 0.21 0.21 0.21 0.21 0.21 0.21 0.20 0.20 0.19 0.19 0.18 0.18 0.17 0.17 0.16 0.15 0.15 0.14 0.14 0.13 0.13 0.12 0.11 0.10
0.24 0.24 0.23 0.23 0.23 0.23 0.23 0.22 0.22 0.23 0.23 0.23 0.24 0.23 0.23 0.22 0.22 0.22 0.22 0.21 0.21 0.21 0.21 0.21 0.20 0.20 0.19 0.19 0.18 0.18 0.17 0.16 0.16 0.15 0.14 0.14 0.14 0.13 0.12 0.12 0.11 0.11
0.26 0.27 0.25 0.23 0.23 0.23 0.23 0.23 0.23 0.24 0.24 0.24 0.24 0.23 0.23 0.23 0.23 0.22 0.22 0.22 0.21 0.21 0.21 0.21 0.20 0.20 0.19 0.19 0.18 0.18 0.17 0.16 0.15 0.15 0.14 0.14 0.13 0.13 0.12 0.12 0.11 0.11
0.27 0.29 0.27 0.24 0.23 0.23 0.23 0.23 0.24 0.24 0.24 0.24 0.24 0.24 0.24 0.23 0.23 0.23 0.22 0.21 0.21 0.21 0.21 0.21 0.20 0.19 0.19 0.18 0.18 0.17 0.17 0.16 0.15 0.15 0.14 0.13 0.13 0.12 0.12 0.12 0.12 0.11
0.27 0.28 0.27 0.24 0.23 0.23 0.23 0.24 0.24 0.25 0.25 0.25 0.24 0.24 0.23 0.23 0.23 0.22 0.22 0.21 0.21 0.21 0.20 0.20 0.20 0.19 0.19 0.18 0.18 0.17 0.16 0.16 0.15 0.14 0.14 0.13 0.13 0.12 0.12 0.12 0.11 0.11
0.26 0.27 0.26 0.24 0.23 0.23 0.24 0.24 0.25 0.25 0.25 0.25 0.24 0.23 0.23 0.22 0.22 0.22 0.21 0.21 0.21 0.20 0.20 0.20 0.19 0.19 0.19 0.18 0.18 0.18 0.17 0.16 0.15 0.15 0.14 0.14 0.13 0.12 0.12 0.12 0.12 0.12
0.26 0.27 0.26 0.25 0.24 0.24 0.24 0.25 0.25 0.25 0.25 0.24 0.23 0.23 0.22 0.22 0.22 0.21 0.21 0.21 0.20 0.20 0.20 0.19 0.19 0.19 0.19 0.18 0.18 0.18 0.17 0.17 0.16 0.15 0.14 0.14 0.14 0.13 0.13 0.12 0.12 0.11
0.26 0.26 0.27 0.25 0.24 0.24 0.25 0.25 0.25 0.25 0.24 0.23 0.22 0.22 0.22 0.22 0.21 0.21 0.21 0.20 0.20 0.19 0.19 0.19 0.19 0.18 0.18 0.18 0.18 0.18 0.17 0.17 0.16 0.15 0.14 0.14 0.14 0.13 0.12 0.12 0.12 0.12
0.26 0.26 0.26 0.25 0.25 0.25 0.25 0.25 0.25 0.24 0.23 0.23 0.22 0.22 0.22 0.21 0.21 0.20 0.20 0.20 0.20 0.19 0.19 0.19 0.18 0.18 0.17 0.17 0.17 0.17 0.16 0.16 0.15 0.15 0.14 0.14 0.14 0.13 0.13 0.12 0.11 0.10
0.25 0.26 0.26 0.26 0.25 0.25 0.25 0.24 0.24 0.23 0.22 0.22 0.22 0.22 0.21 0.21 0.20 0.20 0.20 0.19 0.19 0.19 0.18 0.18 0.17 0.17 0.17 0.17 0.17 0.16 0.16 0.16 0.15 0.15 0.14 0.14 0.13 0.13 0.12 0.12 0.11 0.11
0.25 0.26 0.26 0.26 0.25 0.24 0.24 0.23 0.22 0.22 0.22 0.22 0.22 0.21 0.21 0.20 0.20 0.20 0.19 0.19 0.19 0.18 0.17 0.17 0.17 0.17 0.17 0.17 0.16 0.16 0.16 0.15 0.14 0.14 0.13 0.12 0.12 0.11 0.11 0.11 0.11 0.10
0.25 0.25 0.24 0.24 0.23 0.22 0.22 0.22 0.22 0.22 0.22 0.22 0.21 0.21 0.20 0.20 0.19 0.19 0.19 0.18 0.18 0.17 0.17 0.16 0.16 0.16 0.16 0.16 0.16 0.15 0.15 0.14 0.13 0.13 0.12 0.11 0.11 0.10 0.10 0.10 0.10 0.10
0.23 0.22 0.22 0.22 0.21 0.21 0.22 0.22 0.22 0.22 0.22 0.21 0.20 0.20 0.19 0.19 0.19 0.18 0.18 0.18 0.17 0.17 0.16 0.16 0.15 0.15 0.15 0.15 0.15 0.14 0.14 0.13 0.13 0.12 0.12 0.11 0.11 0.11 0.10 0.10 0.10 0.10
0.21 0.22 0.22 0.22 0.22 0.22 0.22 0.22 0.22 0.21 0.21 0.21 0.20 0.20 0.19 0.19 0.18 0.18 0.17 0.17 0.17 0.16 0.16 0.15 0.15 0.15 0.15 0.14 0.14 0.14 0.13 0.13 0.12 0.11 0.10 0.10 0.09 0.09 0.09 0.09 0.09 0.09
0.23 0.23 0.23 0.23 0.23 0.23 0.22 0.22 0.21 0.21 0.20 0.20 0.19 0.19 0.18 0.18 0.17 0.17 0.16 0.16 0.16 0.16 0.15 0.15 0.14 0.14 0.14 0.13 0.13 0.13 0.13 0.13 0.12 0.11 0.10 0.10 0.10 0.10 0.09 0.10 0.10 0.10
Wind_Speed
38 38 38 38 38 38 38 38 38 38 38 38 39 39 39 39 39 39 39 40 40 40 40 40 40 40 41 41 41 41 41 41 42 42 42 42 42 43 43 44 44 44
38 38 38 38 39 39 39 38 38 38 38 38 38 38 39 39 39 39 39 40 40 40 40 40 41 41 41 41 42 42 42 42 42 42 42 43 43 43 44 44 44 44
38 38 38 38 38 38 38 38 38 38 38 38 38 38 39 39 39 40 40 40 40 41 41 41 42 42 42 42 42 43 43 43 43 43 43 43 44 44 44 45 45 45
38 38 38 38 38 38 38 38 38 38 38 38 39 39 39 40 40 40 41 41 41 42 42 42 43 43 43 43 43 44 44 44 44 44 44 44 44 44 45 45 45 45
39 38 38 38 38 38 38 39 39 39 39 39 40 40 40 41 41 41 42 42 42 43 43 43 44 44 44 44 44 45 45 45 45 45 45 45 45 45 45 45 46 46
39 40 40 40 40 40 40 40 40 40 40 40 41 41 41 42 42 42 43 43 43 44 44 44 45 45 45 45 45 45 45 45 46 45 45 45 45 46 46 46 46 46
41 41 41 41 41 41 41 41 41 41 41 42 42 42 43 43 43 44 44 44 44 44 45 45 45 45 46 46 46 46 46 46 46 46 46 46 46 46 46 46 47 47
42 43 43 43 43 43 43 43 43 43 43 43 43 44 44 44 44 45 45 45 45 46 46 46 46 46 46 46 46 46 47 46 46 46 47 47 47 47 47 47 47 47
44 44 44 44 44 45 45 44 44 44 44 44 44 45 45 45 45 46 46 46 46 47 47 47 47 47 47 47 47 47 47 47 47 47 47 47 47 47 47 47 47 47
45 45 45 46 46 46 46 46 46 46 46 46 45 46 46 46 47 46 47 47 47 48 48 48 48 47 47 47 47 47 47 47 47 47 47 47 48 48 48 47 47 47
45 46 46 47 47 47 47 47 47 47 47 47 47 47 47 47 47 47 48 48 48 49 49 48 48 48 48 48 48 48 47 47 47 48 48 48 48 48 48 48 48 47
45 46 47 48 48 48 48 48 48 48 48 48 48 48 48 48 48 49 49 49 49 49 49 49 49 48 48 48 48 48 48 48 48 48 48 48 48 48 48 47 47 46
45 46 47 48 48 48 48 48 49 49 49 49 49 49 49 49 49 50 50 50 50 50 50 49 49 49 49 48 48 48 48 48 48 48 48 48 48 48 47 47 46 45
46 46 47 48 49 49 49 49 49 49 49 49 49 50 50 50 50 50 50 50 50 50 50 50 49 49 49 49 48 48 48 48 48 48 48 48 48 47 47 46 45 44
46 46 47 48 49 49 49 49 49 50 50 50 50 50 51 51 51 51 51 51 51 50 50 50 49 49 49 49 48 48 48 48 48 48 48 48 47 47 46 45 44 44
46 46 46 48 49 49 49 50 50 50 50 50 50 51 51 51 51 51 51 51 51 50 50 50 49 49 49 49 48 48 48 48 48 48 47 47 46 45 45 44 43 43
47 46 46 47 49 49 49 50 50 50 50 50 51 51 51 51 51 51 51 51 51 50 50 49 49 49 49 49 48 48 48 47 47 47 46 45 45 44 44 43 43 43
46 46 46 47 48 49 49 49 50 50 50 51 51 51 51 51 51 51 51 51 50 50 49 49 49 49 48 48 48 48 47 47 46 46 45 44 43 43 43 43 43 43
46 46 46 46 48 48 49 49 49 50 50 51 51 51 51 51 51 51 51 50 50 49 49 49 48 48 48 48 47 47 47 46 46 45 44 43 43 43 43 43 43 43
46 46 45 46 47 47 48 48 49 50 50 51 51 51 51 51 51 50 50 50 49 49 49 48 48 47 47 47 46 46 46 46 45 44 44 43 43 43 43 43 43 43
46 45 45 45 46 47 47 48 49 50 50 50 51 51 51 50 50 50 50 49 49 48 48 47 46 46 46 46 45 46 46 45 44 44 43 43 43 43 43 44 44 44
46 45 44 44 45 46 47 48 49 50 50 50 50 50 50 50 49 49 49 48 48 47 46 45 45 45 45 45 45 46 46 45 44 44 44 44 44 44 44 44 44 44
45 44 44 44 45 47 48 48 49 49 49 49 49 49 49 49 49 48 48 47 46 45 44 44 44 45 45 46 46 46 45 44 44 44 44 44 44 44 44 44 44 44
44 44 44 45 46 47 48 49 49 49 49 48 48 48 48 48 47 46 45 45 44 44 44 44 45 45 45 46 46 45 45 44 44 44 44 44 44 43 43 43 44 44
45 45 46 47 48 48 49 49 48 48 48 47 47 47 46 46 45 44 44 44 44 44 44 45 45 45 45 46 45 45 44 44 44 44 44 43 43 43 43 43 43 43
46 47 48 48 48 48 48 48 47 47 46 46 45 45 44 44 43 43 44 44 44 44 45 45 45 45 45 45 45 44 44 44 43 43 43 43 43 43 43 42 42 42
Wind_Direction
269 270 272 273 274 276 277 279 280 282 283 285 286 288 289 289 290 290 290 290 291 291 292 292 293 293 294 294 294 294 293 293 293 293 293 292 292 292 291 291 291 290
269 270 271 273 274 276 277 279 280 282 283 285 286 288 289 289 290 290 290 290 291 291 291 292 292 293 293 293 293 294 294 293 293 293 293 292 292 292 292 291 291 290
269 270 271 272 274 275 277 278 280 282 283 285 286 288 289 289 290 290 290 290 291 291 291 292 292 293 293 293 293 293 293 293 293 293 293 292 292 292 292 291 291 290
269 270 271 272 274 275 277 278 280 281 283 285 286 287 288 289 289 290 290 290 290 291 291 292 292 292 292 292 293 293 293 293 292 292 292 292 292 292 292 291 291 291
269 270 271 272 273 275 276 277 279 281 283 284 286 287 288 289 289 290 291 291 291 291 291 292 292 292 292 292 292 293 293 293 292 292 292 292 292 291 291 291 291 291
269 270 271 272 273 274 275 277 279 280 282 283 285 286 287 288 289 290 291 291 291 291 291 292 292 292 292 292 292 292 292 292 292 292 292 292 292 291 291 291 291 290
269 270 270 272 272 273 275 277 278 280 281 283 285 286 287 288 289 290 291 291 291 291 291 291 292 292 291 292 292 292 292 292 292 292 292 292 292 291 291 291 291 291
269 269 270 271 272 273 275 276 278 279 281 283 284 286 286 288 289 290 290 290 290 291 291 291 291 291 291 291 292 292 292 292 292 291 291 291 291 291 291 291 291 290
269 270 270 271 272 273 275 276 277 279 280 282 284 285 286 287 288 289 290 290 290 290 290 291 291 291 291 291 291 291 291 291 291 291 291 291 291 291 291 291 291 290
270 270 270 271 272 273 274 275 277 278 279 281 283 285 286 286 287 288 289 290 290 290 290 290 291 291 291 291 291 291 291 291 291 290 290 291 291 291 291 291 290 290
271 271 271 271 272 273 273 274 276 277 279 280 282 284 285 286 287 288 289 289 289 290 290 290 290 290 290 290 290 290 290 290 290 290 290 290 290 290 291 290 290 290
271 271 271 271 272 273 273 274 275 276 278 280 282 283 284 285 286 287 288 289 289 289 289 290 290 290 289 290 290 290 290 290 290 290 290 290 290 290 290 290 290 289
271 272 272 272 272 272 273 274 275 276 278 280 281 282 284 285 285 287 288 288 289 289 289 289 289 289 289 289 289 289 289 289 289 289 289 290 290 290 290 290 289 288
272 272 272 272 272 272 273 274 275 276 278 280 281 282 283 284 285 286 287 288 288 289 289 288 288 288 289 289 289 289 289 289 289 289 289 289 290 290 289 289 288 287
273 273 272 272 272 273 273 274 275 276 278 280 281 282 283 284 285 286 286 287 288 288 288 288 288 288 288 288 289 289 288 289 289 289 289 289 289 289 289 288 288 287
275 274 273 272 272 272 273 274 275 276 278 279 281 282 283 284 284 285 286 287 287 288 288 288 288 288 288 288 288 288 288 288 288 288 289 289 289 289 288 288 288 287
276 274 273 272 272 272 273 274 275 277 278 280 281 282 282 283 284 285 286 286 287 287 287 287 288 288 287 287 287 287 287 288 288 288 288 288 288 288 288 288 288 288
277 275 274 273 272 273 273 275 276 277 279 280 281 281 282 283 284 285 286 286 286 287 287 287 287 287 286 286 286 286 287 287 288 288 288 288 287 287 287 287 287 288
279 277 275 273 273 273 274 275 277 278 279 280 281 282 283 283 284 285 285 285 286 286 286 286 287 286 286 286 286 286 286 287 288 288 287 287 287 287 287 287 287 287
280 278 276 274 274 274 275 276 277 278 279 280 281 282 283 283 284 284 284 285 285 285 286 286 286 286 285 285 286 286 286 287 288 287 287 287 287 287 287 287 287 287
281 280 277 275 275 275 276 276 277 279 280 281 282 282 283 283 283 283 284 284 285 285 285 285 285 285 285 285 286 286 287 287 287 287 287 287 286 286 287 287 287 287
282 280 278 276 275 276 277 277 278 280 281 282 282 282 282 282 282 283 283 284 284 284 284 284 285 284 285 285 286 286 287 287 287 286 286 287 287 286 287 287 287 287
282 281 279 277 277 277 278 279 280 281 281 282 282 281 281 282 282 283 283 283 283 284 284 284 284 285 285 285 286 286 286 286 286 286 286 286 287 287 287 287 287 287
283 281 280 279 279 280 280 281 281 281 281 281 281 281 281 281 282 282 283 283 283 283 283 284 285 285 285 285 286 285 286 286 286 286 286 286 287 287 287 287 287 286
284 283 282 282 282 282 282 282 282 281 281 281 281 281 281 281 282 282 282 283 283 283 284 284 285 285 285 285 285 285 285 285 286 286 286 286 286 287 287 287 287 286
285 284 284 283 283 283 282 282 281 281 280 280 280 280 281 281 281 282 282 283 283 284 284 284 284 285 285 285 284 284 284 285 285 285 286 286 286 287 287 286 286 286